Patterson, LA

5:35 AM CST on November 21, 2019 (GMT -0600)
Williams Memorial

Weather History for KPTN - September, 2019

Change the Weather History Date:

Tuesday, September 24, 2019

  Actual Average Record
Temperature  
Mean Temperature 78 °F -  
Max Temperature 89 °F 82 °F 96 °F (1998)
Min Temperature 66 °F 65 °F 53 °F (1999)
Cooling Degree Days 12    
Growing Degree Days 28 (Base 50)    
Moisture  
Dew Point 68 °F    
Average Humidity 69    
Maximum Humidity 100    
Minimum Humidity 48    
Precipitation  
Precipitation 0.00 in - - ()
Sea Level Pressure  
Sea Level Pressure 29.99 in    
Wind  
Wind Speed 1 mph (SSE)    
Max Wind Speed 8 mph    
Max Gust Speed -    
Visibility 4 miles    
Events Fog    
Averages and records for this station are not official NWS values.
T = Trace of Precipitation, MM = Missing Value Source: NWS Daily Summary

Daily Weather History Graph

Daily Weather History Graph

Search for Another Location

Airport or City:

Astronomy

Sep. 24, 2019 Rise Set
Actual Time 6:54 AM CDT 6:59 PM CDT
Civil Twilight 6:30 AM CDT 7:23 PM CDT
Nautical Twilight 6:03 AM CDT 7:51 PM CDT
Astronomical Twilight 5:35 AM CDT 8:19 PM CDT
Moon 2:06 AM CDT (9/24) 4:20 PM CDT (9/24)
Length of Visible Light 12h 52m
Length of Day
12h 04m
Waning Crescent, 23% of the Moon is Illuminated
Sep 24
Waning Crescent
Sep 28
New
Oct 5
First Quarter
Oct 13
Full
Oct 21
Last Quarter

Hourly Weather History & Observations

Time (CDT) Temp. Heat Index Dew Point Humidity Pressure Visibility Wind Dir Wind Speed Gust Speed Precip Events Conditions
12:56 AM 71.1 °F - - N/A% 30.00 in 10.0 mi Calm Calm - N/A   Clear
1:56 AM 71.1 °F - - N/A% 29.99 in 10.0 mi Calm Calm - N/A   Clear
2:56 AM 71.1 °F - - N/A% 29.99 in 10.0 mi Calm Calm - N/A   Clear
3:18 AM 71.6 °F - - N/A% 29.99 in 1.8 mi Calm Calm - N/A   Clear
3:25 AM 69.8 °F - - N/A% 29.99 in 0.8 mi Calm Calm - N/A   Clear
3:29 AM 69.8 °F - - N/A% 29.99 in 1.2 mi Calm Calm - N/A   Clear
3:35 AM 69.8 °F - - N/A% 29.99 in 5.0 mi Calm Calm - N/A   Haze
3:38 AM 71.6 °F - - N/A% 29.99 in 1.8 mi Calm Calm - N/A   Clear
3:42 AM 69.8 °F - - N/A% 29.99 in 0.8 mi Calm Calm - N/A   Clear
3:56 AM 70.0 °F - - N/A% 29.99 in 0.5 mi Calm Calm - N/A Fog Fog
4:12 AM 69.8 °F - - N/A% 29.99 in 0.5 mi Calm Calm - N/A Fog Fog
4:21 AM 69.8 °F - - N/A% 29.99 in 1.0 mi Calm Calm - N/A   Mist
4:24 AM 69.8 °F - - N/A% 29.99 in 2.5 mi Calm Calm - N/A   Scattered Clouds
4:33 AM 69.8 °F - - N/A% 29.99 in 1.0 mi Calm Calm - N/A   Mist
4:37 AM 69.8 °F - - N/A% 29.99 in 0.5 mi Calm Calm - N/A Fog Fog
4:56 AM 70.0 °F - - N/A% 30.00 in 0.5 mi Calm Calm - N/A Fog Fog
5:14 AM 69.8 °F - - N/A% 30.00 in 1.0 mi Calm Calm - N/A   Overcast
5:17 AM 69.8 °F - - N/A% 30.00 in 2.5 mi Calm Calm - N/A   Mostly Cloudy
5:20 AM 69.8 °F - - N/A% 30.00 in 1.0 mi Calm Calm - N/A   Mostly Cloudy
5:32 AM 69.8 °F - - N/A% 30.00 in 0.8 mi Calm Calm - N/A   Mist
5:35 AM 69.8 °F - - N/A% 30.00 in 0.5 mi Calm Calm - N/A Fog Fog
5:42 AM 68.0 °F - - N/A% 30.00 in 1.0 mi Calm Calm - N/A   Mist
5:45 AM 69.8 °F - - N/A% 30.00 in 2.5 mi Calm Calm - N/A   Partly Cloudy
5:49 AM 69.8 °F - - N/A% 30.00 in 1.0 mi Calm Calm - N/A   Mist
5:52 AM 69.8 °F - - N/A% 30.00 in 0.5 mi Calm Calm - N/A Fog Fog
5:56 AM 69.1 °F - - N/A% 30.01 in 0.5 mi Calm Calm - N/A Fog Fog
6:15 AM 69.8 °F - 69.8 °F 100% 30.01 in 0.2 mi Calm Calm - N/A Fog Fog
6:43 AM 68.0 °F - 68.0 °F 100% 30.01 in 0.5 mi Calm Calm - N/A Fog Fog
6:56 AM 68.0 °F - 68.0 °F 100% 30.02 in 0.2 mi Calm Calm - N/A Fog Fog
7:07 AM 68.0 °F - - N/A% 30.02 in 0.8 mi Calm Calm - N/A   Overcast
7:09 AM 68.0 °F - - N/A% 30.02 in 4.0 mi Calm Calm - N/A   Haze
7:14 AM 66.2 °F - - N/A% 30.02 in 0.8 mi Calm Calm - N/A   Overcast
7:21 AM 68.0 °F - - N/A% 30.02 in 0.2 mi Calm Calm - N/A Fog Fog
7:42 AM 69.8 °F - - N/A% 30.02 in 0.8 mi Calm Calm - N/A   Mist
7:44 AM 69.8 °F - - N/A% 30.02 in 1.2 mi Calm Calm - N/A   Scattered Clouds
7:48 AM 71.6 °F - - N/A% 30.02 in 6.0 mi Calm Calm - N/A   Haze
7:56 AM 72.0 °F - - N/A% 30.02 in 10.0 mi Calm Calm - N/A   Partly Cloudy
8:56 AM 75.9 °F - - N/A% - 10.0 mi North - - N/A   Clear
9:56 AM 82.9 °F 86.5 °F 69.1 °F 63% 30.03 in 10.0 mi Calm Calm - N/A   Clear
10:56 AM 86.0 °F 89.4 °F 68.0 °F 55% 30.03 in 10.0 mi ESE 5.8 mph - N/A   Clear
11:56 AM 87.1 °F 89.9 °F 66.9 °F 51% 30.01 in 10.0 mi ESE 6.9 mph - N/A   Clear
12:56 PM 88.0 °F 90.3 °F 66.0 °F 48% 29.99 in 10.0 mi ESE 8.1 mph - N/A   Clear
1:56 PM 86.0 °F 88.8 °F 66.9 °F 53% 29.97 in 9.0 mi ESE 6.9 mph - N/A   Partly Cloudy
2:56 PM 86.0 °F 88.8 °F 66.9 °F 53% 29.95 in 10.0 mi Variable 5.8 mph - N/A   Mostly Cloudy
3:56 PM 89.1 °F 92.9 °F 68.0 °F 50% 29.93 in 10.0 mi South 4.6 mph - N/A   Partly Cloudy
4:56 PM 87.1 °F 92.0 °F 70.0 °F 57% 29.92 in 10.0 mi Variable 5.8 mph - N/A   Scattered Clouds
5:56 PM 84.0 °F 88.4 °F 70.0 °F 63% 29.91 in 10.0 mi SSW 8.1 mph - N/A   Partly Cloudy
7:56 PM 77.0 °F - 70.0 °F 79% 29.92 in 10.0 mi SW 4.6 mph - N/A   Clear
8:56 PM 73.9 °F - 71.1 °F 91% 29.93 in 10.0 mi Calm Calm - N/A   Clear
9:56 PM 73.0 °F - - N/A% 29.94 in 10.0 mi Calm Calm - N/A   Clear
10:56 PM - - - N/A% 29.93 in 10.0 mi Calm Calm - N/A   Clear